Hourly Data Report for September 09, 2021

WINNIPEG THE FORKS
MANITOBA
Current Station Operator: ECCC - MSC

49°53'18.008" N
97°07'46.007" W
230.00 m
5023262
71579
XWN

Download Data

Hourly Data (September 2021)
Hourly Data Report for September 9, 2021
TIME
LST
Temp Definition
°C
Dew Point Definition
°C
Rel Hum Definition
%
Precip. Amount Definition
mm

Wind Dir Definition
10's deg

Wind Spd Definition
km/h
Visibility Definition
km
Stn Press Definition
kPa
Hmdx Definition


Wind Chill Definition


Weather Definition


00:00 14.0 12.1 88 0.0 0 1   98.84     LegendNANA
01:00 13.2 11.3 88 0.0   0   98.85     LegendNANA
02:00 12.6 11.2 91 0.0   0   98.86     LegendNANA
03:00 12.4 11.2 92 0.0 22 2   98.88     LegendNANA
04:00 12.5 11.1 91 0.0 0 1   98.87     LegendNANA
05:00 11.8 10.5 92 0.0 21 1   98.91     LegendNANA
06:00 12.1 11.0 93 0.0   0   98.90     LegendNANA
07:00 12.4 10.8 90 0.0 0 1   98.90     LegendNANA
08:00 14.5 11.6 83 0.0 8 2   98.93     LegendNANA
09:00 15.9 11.3 74 0.0 20 3   98.90     LegendNANA
10:00 17.0 11.4 69 0.0 17 2   98.83     LegendNANA
11:00 17.4 11.1 67 0.0 16 2   98.79     LegendNANA
12:00 17.7 11.2 65 0.0 27 2   98.72     LegendNANA
13:00 18.8 11.3 62 0.0 11 4   98.70     LegendNANA
14:00 20.2 12.1 60 0.0 10 5   98.63     LegendNANA
15:00 21.7 12.1 55 0.0 7 5   98.59     LegendNANA
16:00 22.1 11.1 49 0.0 10 6   98.51     LegendNANA
17:00 22.3 9.6 45 0.0 21 2   98.50     LegendNANA
18:00 21.1 10.4 51 0.0 10 2   98.49     LegendNANA
19:00 19.7 10.7 56 0.0 11 4   98.47     LegendNANA
20:00 17.6 12.0 69 0.0 10 5   98.48     LegendNANA
21:00 16.8 11.9 73 0.0 10 4   98.49     LegendNANA
22:00 16.0 11.4 74 0.0 11 4   98.45     LegendNANA
23:00 15.7 11.0 74 0.0 10 2   98.40     LegendNANA

Notes on Data Quality.

Legend

  • E = Estimated
  • M = Missing
  • NA = Not Available*
  • [empty] = Indicates an unobserved value
Date modified: